Wind_Speed
20 21 21 22 22 22 22 22 23 23 22 21 20 19 18 17 16 16 16 14 13 14 14 14 15 15 16 16 17 19 21 22 23 24 24 25 27 27 27 27 26 26 26 25 24 24 24 24 24 23 21 16 14 14 14 13 12 11 11 11 12 11 11 11 9 10 11 12 13 15 17 19 20 22 23 22 22 22 22 21 20 19 20 21 22
22 21 22 23 23 23 22 23 23 23 23 22 21 19 18 17 17 17 17 15 14 14 14 14 15 15 16 17 18 20 21 23 24 26 26 27 28 29 29 29 29 28 27 26 26 25 25 25 24 24 23 19 15 14 13 14 13 13 13 13 13 13 13 12 12 12 13 14 15 17 19 20 21 23 25 25 25 25 25 25 23 23 22 22 22
24 23 23 23 23 23 23 23 23 23 24 22 20 20 19 18 18 17 16 15 15 14 14 14 14 15 16 17 18 19 21 23 25 26 28 29 29 30 31 31 31 30 28 28 28 27 26 25 25 24 25 22 17 15 14 14 14 14 14 14 14 15 15 14 14 16 16 16 18 20 21 21 21 23 25 26 27 28 28 28 28 27 27 26 24
26 25 24 23 23 24 23 23 23 23 23 22 20 20 20 19 18 16 15 15 15 14 14 14 15 16 17 17 18 20 22 24 25 27 28 30 30 31 32 32 32 31 29 29 29 28 27 26 24 24 26 24 19 17 15 14 14 15 15 15 15 15 16 16 17 19 19 18 19 21 22 22 23 23 24 25 26 28 29 29 29 29 29 28 27
28 27 25 24 24 24 23 23 23 23 22 22 21 20 20 19 18 16 15 14 14 14 14 14 15 16 16 18 19 21 22 24 26 27 28 30 31 32 32 33 32 32 30 29 29 29 29 27 25 25 26 25 21 18 17 15 15 15 15 15 15 16 16 17 18 19 19 19 19 20 22 23 24 24 25 26 25 26 28 29 29 28 27 27 27
30 28 26 26 25 24 23 23 22 22 22 21 20 20 19 18 17 15 15 15 15 14 15 14 15 16 17 18 20 21 23 24 25 27 28 30 31 32 31 31 31 32 31 30 30 30 30 28 25 25 26 25 22 19 18 17 16 16 15 15 15 16 17 18 19 19 20 20 21 21 22 24 24 23 25 27 27 26 26 27 27 27 27 27 26
30 30 28 27 26 25 23 22 21 21 22 21 20 20 19 18 17 16 15 16 16 15 15 15 15 17 18 20 21 22 24 25 27 28 28 28 29 31 30 29 30 31 30 30 31 31 30 28 27 26 27 25 23 21 20 19 18 17 15 15 16 16 17 18 19 20 21 22 23 24 24 25 24 24 25 27 28 27 27 28 26 26 27 27 26
31 31 30 28 27 24 22 21 21 21 22 22 22 20 19 18 17 17 17 17 16 16 16 16 17 18 20 21 21 23 25 27 28 30 29 28 29 30 30 29 29 29 29 30 32 32 30 28 28 28 27 25 24 23 23 22 20 19 17 16 16 16 17 19 20 21 22 24 24 25 26 25 25 25 26 27 28 28 28 29 27 25 25 26 25
31 31 31 29 27 24 22 21 21 22 22 23 23 21 20 19 19 18 17 17 16 17 17 17 17 18 19 21 22 23 26 28 30 31 31 30 29 29 30 30 29 28 29 30 30 31 30 29 30 30 28 25 24 23 24 24 21 20 19 17 16 16 18 19 21 22 25 26 25 26 27 27 26 27 28 29 29 29 28 28 27 26 26 26 24
31 30 31 30 27 25 23 23 22 23 23 23 22 22 21 20 20 19 17 16 17 18 18 18 17 18 19 21 22 24 25 27 29 31 30 28 25 25 27 28 27 27 28 29 28 29 30 30 32 31 28 26 24 22 24 25 23 21 18 16 16 17 18 21 23 25 27 28 27 27 28 27 27 29 30 30 29 28 27 27 27 28 28 28 26
31 30 30 29 28 27 25 24 24 24 24 23 22 22 21 21 21 20 18 17 16 18 18 18 17 18 19 21 22 23 23 25 29 31 29 25 20 20 23 25 25 27 28 27 27 28 30 32 32 30 27 26 25 23 24 24 23 20 18 17 17 18 20 22 24 26 28 29 29 28 29 28 28 30 31 31 30 29 28 28 29 29 30 31 30
32 31 30 29 28 28 27 25 25 25 25 24 23 22 22 22 22 21 19 17 17 18 18 18 19 19 20 21 20 20 22 25 29 30 28 25 21 20 23 25 25 26 27 26 25 27 30 32 32 30 28 27 26 24 24 23 21 19 18 17 18 19 22 23 25 26 28 30 30 29 29 30 30 30 31 31 30 29 29 30 30 32 32 33 34
32 32 31 30 28 28 28 27 26 26 26 25 24 23 23 23 22 20 19 19 18 19 19 20 21 21 21 20 19 20 23 26 28 29 28 27 24 22 24 25 24 26 25 24 25 27 29 31 33 32 29 27 26 22 21 20 19 19 18 18 19 21 23 24 26 28 29 31 32 31 30 31 31 31 31 31 31 30 30 31 31 33 34 35 34
32 32 32 30 28 28 29 29 28 28 27 26 25 24 24 22 22 21 20 20 20 20 20 21 22 22 21 20 20 21 24 25 26 28 28 26 24 22 24 25 25 25 24 23 25 27 29 31 33 31 28 26 23 19 18 18 18 19 19 20 21 23 24 25 27 28 29 31 33 32 31 32 32 31 30 31 31 31 32 32 33 34 35 35 33
32 32 32 31 28 28 30 31 31 31 30 28 27 25 24 23 22 22 21 21 21 20 21 22 22 21 21 21 22 23 24 25 27 27 27 24 21 21 23 25 24 24 24 23 24 26 29 32 33 29 26 23 20 18 18 18 19 21 22 22 23 24 25 26 27 29 30 32 33 32 32 32 32 32 31 32 32 32 33 33 34 34 35 34 31
33 33 32 31 30 30 31 33 33 32 31 30 28 26 25 24 23 23 22 22 21 21 22 22 20 20 21 23 25 24 24 25 27 27 25 23 21 21 23 22 22 23 24 23 23 25 29 30 28 26 24 20 18 19 19 20 22 23 23 23 24 25 26 26 28 30 32 32 31 31 31 32 32 32 32 31 31 32 33 34 34 34 35 34 30
35 35 33 32 31 31 32 33 33 33 33 32 30 28 27 26 24 23 23 23 22 21 21 20 19 20 23 24 25 24 24 25 27 27 24 22 22 22 21 21 23 25 25 24 24 26 27 24 23 24 22 17 18 20 21 22 22 22 22 23 24 26 26 27 28 30 31 31 31 31 32 32 32 32 31 31 31 32 34 35 34 33 34 33 31
36 37 35 34 33 33 33 33 34 33 33 33 31 30 29 26 25 24 23 22 21 21 20 19 20 21 23 25 25 25 26 27 27 27 24 22 22 22 21 23 26 26 25 25 25 25 23 21 21 22 18 16 18 21 22 22 22 21 22 23 24 26 27 28 29 30 30 30 31 32 32 32 32 32 32 31 31 32 34 34 33 33 33 33 31
38 38 38 37 36 34 33 33 34 34 33 33 32 31 28 26 25 25 23 22 21 21 20 20 20 21 23 24 24 26 27 28 28 27 24 23 23 23 23 25 25 24 23 24 23 22 21 20 21 20 16 16 18 20 21 22 21 21 22 23 25 27 29 30 30 30 30 31 32 33 33 33 32 32 31 32 32 32 33 33 33 33 33 32 31
39 40 41 41 38 36 34 34 34 34 33 33 33 31 28 27 27 25 24 23 22 22 21 20 20 20 21 23 25 27 28 29 28 27 24 23 23 24 24 24 22 20 19 20 21 21 20 19 18 17 17 17 18 19 20 20 20 20 22 25 26 27 29 30 31 31 31 32 33 33 33 32 32 32 32 32 32 32 31 32 31 32 32 31 30
40 43 44 44 41 37 35 35 35 34 34 34 32 30 28 28 27 25 24 23 22 22 20 18 18 19 22 26 27 29 30 29 26 24 23 22 23 23 23 21 17 15 15 17 20 21 19 16 16 16 16 17 18 18 18 18 19 21 23 25 26 27 29 31 31 31 32 33 33 33 33 32 31 32 32 33 33 31 30 29 30 30 31 31 30
40 45 47 46 43 39 37 36 35 34 34 33 31 30 30 29 28 26 24 23 22 20 18 18 20 26 32 33 32 31 30 28 24 21 22 22 22 22 21 18 14 12 13 15 17 17 15 14 15 15 16 17 16 16 17 18 20 22 24 25 26 28 30 31 31 32 32 33 33 32 31 31 31 32 33 34 32 30 29 28 28 29 29 30 30
38 44 48 47 44 41 39 37 35 35 34 32 32 32 31 29 28 26 24 23 20 18 20 22 27 33 37 36 33 31 29 26 22 20 21 20 20 20 18 15 12 11 11 12 13 13 12 13 15 16 16 15 15 15 17 19 21 22 25 26 28 30 31 31 31 32 32 32 32 30 30 31 32 33 34 33 31 29 28 27 26 27 28 28 29
38 43 48 48 45 43 41 38 37 36 34 33 33 33 31 29 27 25 24 21 19 21 24 26 30 36 37 34 33 30 27 24 20 18 18 18 17 17 15 13 11 9 9 9 11 11 11 12 13 13 13 14 15 16 18 20 21 23 26 28 29 30 31 31 32 32 31 30 29 29 30 32 33 33 32 31 30 28 26 25 25 26 27 27 27
38 43 47 47 46 45 42 39 38 36 34 34 34 32 30 29 27 24 22 21 22 25 27 27 29 32 32 32 31 29 24 21 18 16 15 15 15 15 13 11 10 9 7 8 9 10 11 11 11 11 12 14 16 17 18 20 22 25 27 28 30 30 31 32 32 30 29 27 27 28 31 32 31 30 30 28 27 25 25 24 25 26 27 28 27
38 42 46 47 47 46 42 39 37 36 36 35 34 32 30 28 25 22 22 23 24 25 25 24 25 27 29 30 29 25 21 17 15 13 13 13 14 13 12 10 9 8 7 7 7 8 9 10 10 12 13 15 16 16 18 21 24 26 28 29 30 31 31 31 30 29 27 27 27 28 29 28 27 25 25 24 23 23 24 25 25 25 27 27 26
40 42 46 47 46 43 40 39 39 38 38 36 34 32 29 25 22 21 21 21 21 21 21 22 25 28 30 29 26 22 18 14 12 12 12 13 13 12 10 9 8 7 5 5 6 7 9 10 11 12 13 14 15 17 20 23 25 27 29 30 30 30 30 30 29 27 27 27 27 27 25 24 22 22 22 22 22 23 24 25 24 24 25 26 25
40 41 41 41 41 39 38 39 39 38 37 35 33 29 25 21 19 18 18 17 17 17 19 23 26 29 29 27 25 22 16 11 11 11 11 12 12 12 10 9 7 6 5 6 7 9 10 11 12 13 13 15 17 19 21 24 26 27 28 29 29 29 30 30 28 27 27 28 28 27 24 22 21 21 22 22 22 22 23 24 25 25 25 25 24
36 36 36 36 37 38 39 38 37 35 33 31 28 24 20 17 15 14 14 15 16 18 21 24 26 27 27 25 23 18 12 10 10 11 11 11 12 11 11 9 8 8 8 9 10 10 11 11 12 13 15 16 18 20 23 25 26 27 27 28 29 29 29 30 29 27 27 28 27 25 24 23 23 23 23 23 22 22 23 25 26 25 24 24 23
34 34 36 37 37 38 38 35 32 29 26 24 21 18 15 13 12 13 15 17 20 22 24 26 26 27 27 22 18 13 10 10 11 10 10 11 10 10 11 10 10 10 10 11 11 11 11 12 13 15 17 18 20 22 23 25 26 27 28 29 29 29 30 30 29 27 27 27 27 25 25 25 25 25 25 25 24 24 25 26 26 25 24 23 22
33 34 35 36 35 34 32 29 25 22 20 17 15 12 11 12 15 17 21 23 23 24 26 27 27 28 26 20 15 11 10 10 11 10 10 10 9 9 10 11 11 12 12 12 11 11 11 12 14 16 19 20 22 24 24 25 26 28 29 29 29 29 29 29 29 28 27 27 26 25 25 25 26 26 27 27 26 25 25 25 24 23 23 22 22
32 33 32 31 29 27 24 21 19 17 14 12 11 11 13 17 20 22 23 23 24 26 28 26 23 22 21 17 13 11 11 11 11 11 10 9 9 10 11 12 13 13 13 12 11 11 12 14 16 19 21 23 24 25 26 27 28 29 29 29 29 29 30 30 30 30 29 29 28 26 25 25 26 26 26 26 26 25 24 23 22 22 22 21 22
26 25 25 25 23 20 18 16 14 12 12 12 13 16 18 21 24 26 25 25 26 27 24 19 16 17 16 14 12 12 13 12 12 11 11 10 11 12 13 13 14 14 13 12 12 12 14 16 18 21 23 24 25 25 27 28 28 28 28 28 29 30 30 31 31 31 30 30 28 27 25 25 25 25 25 25 24 24 23 22 21 21 21 21 22
22 23 23 22 20 17 14 12 11 12 12 13 15 18 19 20 23 25 25 24 22 19 15 13 13 14 13 11 12 13 13 13 12 12 13 13 13 13 14 15 15 15 14 12 13 14 16 18 20 23 24 25 25 25 27 27 26 26 25 25 27 28 29 30 30 30 29 28 26 25 25 24 24 24 24 24 23 22 22 21 21 21 21 22 23
23 23 20 17 16 15 13 12 12 11 11 14 18 20 21 21 22 21 19 17 14 12 11 11 11 10 9 9 11 12 13 13 13 14 14 14 13 14 15 16 16 15 13 13 14 16 17 20 22 24 24 24 24 25 26 26 26 24 23 22 24 26 27 28 29 28 27 26 25 24 24 23 23 23 23 23 22 22 21 20 20 20 21 22 22
18 15 12 10 12 14 15 14 14 15 16 18 19 19 18 18 17 16 13 11 10 10 9 9 9 8 7 8 9 10 11 12 13 14 14 13 14 15 16 16 16 15 15 15 16 17 19 21 23 23 22 22 23 24 25 25 24 23 22 21 22 24 25 26 26 26 25 24 24 23 23 22 22 22 23 22 22 21 20 19 19 20 20 21 21
13 13 13 13 13 14 15 15 16 17 17 15 14 14 13 13 12 11 9 8 9 9 8 7 7 6 6 7 8 8 10 11 12 13 13 14 15 16 17 16 17 16 16 17 18 20 21 22 22 21 21 23 24 25 25 24 23 23 22 22 22 23 23 24 23 23 23 22 23 23 22 22 22 22 22 21 20 19 18 18 18 18 19 19 20
11 11 11 11 11 13 16 18 18 17 14 12 12 12 10 10 9 8 8 9 9 9 8 7 7 7 8 8 9 9 10 11 12 13 14 15 16 16 17 17 17 18 18 20 21 22 23 22 21 21 23 24 24 24 23 24 24 23 22 21 21 22 22 21 20 20 20 21 22 22 22 22 21 21 20 19 18 17 17 17 17 17 18 18 20
7 6 5 4 5 8 11 14 15 13 12 11 11 10 9 9 9 8 9 10 11 10 9 8 9 9 9 9 9 10 10 11 12 13 14 15 16 16 17 17 19 21 22 23 23 23 23 22 23 23 23 23 23 22 22 22 22 21 20 19 20 20 20 20 20 19 19 20 20 20 20 19 19 19 18 17 16 16 16 16 16 17 18 18 19
5 4 3 3 4 6 9 11 11 10 10 11 11 11 12 13 11 10 11 12 11 11 10 10 10 10 10 10 10 11 11 12 14 15 16 16 17 17 18 19 21 23 24 25 25 24 23 24 25 25 23 22 21 22 22 21 20 18 18 17 17 18 18 19 19 19 18 18 18 17 17 17 17 17 16 15 15 15 15 15 16 17 18 18 19
4 4 5 7 7 8 9 9 9 9 10 12 12 13 14 15 14 14 13 13 12 11 10 10 10 10 11 11 12 13 13 14 15 16 17 17 18 18 19 20 22 24 25 25 25 25 25 26 26 25 24 23 22 22 21 20 17 16 15 16 16 17 17 18 18 18 17 16 15 14 14 15 15 15 14 14 14 15 15 15 16 16 17 18 18
6 7 8 10 10 10 11 12 12 12 13 13 13 13 14 15 15 13 12 11 11 10 8 8 10 11 11 12 12 13 13 14 16 17 18 18 19 20 20 21 23 24 24 24 24 25 25 25 24 24 25 24 23 22 20 18 15 14 15 16 16 16 16 16 17 17 16 14 13 13 13 13 13 13 12 13 14 14 14 15 15 16 16 17 17
10 10 11 13 13 12 13 14 14 14 15 15 15 15 15 14 13 12 11 12 12 9 7 7 10 11 11 11 12 12 13 15 16 18 19 20 20 21 21 22 23 23 23 23 24 24 23 21 21 22 23 23 23 21 19 17 15 15 15 16 16 16 16 16 16 16 15 13 12 12 12 12 12 12 12 12 13 14 14 15 15 15 15 15 16
14 13 11 12 13 13 14 15 15 15 16 17 17 16 16 15 14 12 11 11 10 8 8 9 11 12 12 12 12 13 14 16 17 18 20 21 22 22 22 22 23 23 23 24 23 22 20 18 18 19 20 21 21 21 19 17 16 15 16 17 16 15 15 15 15 15 14 12 12 12 12 12 11 11 11 12 13 13 14 14 14 14 14 14 15
15 14 12 13 14 15 15 17 18 18 18 19 17 15 14 15 13 11 9 9 10 10 10 10 11 12 12 12 13 14 15 17 18 20 21 22 22 23 23 23 23 22 22 22 21 19 18 16 15 15 18 20 20 20 18 17 15 15 16 17 16 15 15 15 15 14 13 12 11 11 11 11 11 11 11 12 12 13 13 13 13 13 13 13 14
15 15 14 15 17 17 18 21 21 18 16 16 15 12 12 13 12 10 10 12 13 12 11 11 11 12 12 13 14 16 17 18 20 21 22 23 23 24 24 23 22 22 22 21 20 19 17 15 13 14 16 17 18 18 16 15 14 15 16 16 16 15 15 15 14 14 13 12 11 11 11 11 11 11 11 11 12 12 13 12 12 12 12 12 14
18 17 16 16 16 16 17 19 18 14 12 12 12 11 11 12 12 13 14 14 13 11 11 11 12 13 13 15 16 17 18 20 21 22 23 23 23 23 23 23 23 22 21 21 20 19 17 15 15 15 15 15 16 16 15 14 13 13 14 16 16 15 14 14 14 14 13 12 11 11 11 11 11 11 11 11 12 12 12 12 11 11 11 12 14
22 21 19 18 17 16 15 15 14 13 12 12 12 12 12 13 13 14 14 13 12 12 12 13 14 15 16 17 18 19 20 21 22 22 23 23 24 24 25 24 24 23 22 21 21 19 18 17 16 15 14 13 13 13 13 14 14 13 14 15 16 14 13 14 14 14 13 12 12 11 11 11 11 11 11 11 11 12 12 12 11 11 11 12 13
21 21 21 20 18 17 16 17 15 14 13 13 12 12 12 13 14 15 14 13 13 13 13 15 16 17 18 19 20 21 22 23 24 24 24 25 26 26 27 26 25 24 23 23 22 20 18 17 15 14 12 12 11 11 11 12 13 14 14 15 14 13 13 13 14 13 13 13 12 12 11 12 11 11 11 11 11 12 12 11 11 11 11 11 13
16 18 20 19 17 14 14 14 13 13 13 13 13 13 13 14 15 15 14 14 14 15 15 16 18 19 20 21 22 23 23 23 23 23 23 24 25 26 26 26 26 25 24 23 22 20 18 16 14 12 11 11 11 10 11 11 13 14 14 14 13 12 12 13 13 13 13 13 12 12 12 12 12 12 12 12 12 12 12 11 11 11 11 11 12
12 14 14 14 13 13 12 13 13 13 12 12 12 13 14 15 15 14 13 13 14 15 16 17 18 20 21 22 22 22 21 20 19 19 19 19 20 22 23 24 25 24 23 22 20 18 16 15 14 13 12 10 9 9 9 10 11 12 13 13 13 12 12 12 13 13 13 13 13 13 13 13 13 13 13 12 12 12 12 11 11 11 11 11 12
Wind_Direction
215 215 215 219 221 221 222 222 223 224 225 226 227 230 233 233 236 241 247 253 254 258 264 269 275 280 282 284 283 282 282 283 285 286 287 289 291 292 293 295 299 303 306 311 315 317 322 326 329 333 332 315 297 298 298 295 291 282 277 277 275 277 283 292 305 314 314 318 323 323 322 320 316 311 306 303 301 299 296 292 285 278 271 266 262
215 216 216 218 220 221 222 222 223 225 226 227 227 231 236 238 240 243 248 255 260 265 269 273 277 281 283 285 285 285 285 285 286 288 289 290 291 292 293 294 295 298 301 306 310 312 315 319 322 326 331 322 299 290 293 293 291 285 278 277 278 280 286 294 301 307 308 309 315 319 320 319 317 312 308 303 301 298 297 295 292 288 284 279 274
213 216 218 219 220 221 221 222 224 226 227 228 228 230 236 241 244 246 250 255 261 266 271 275 278 281 283 285 287 287 288 288 288 290 292 291 292 293 293 293 293 295 298 302 305 308 309 313 317 321 327 324 304 287 288 291 287 282 277 277 281 284 288 293 297 300 302 305 310 315 316 315 313 310 306 303 299 296 295 294 293 290 288 285 282
212 215 218 220 220 220 221 223 224 226 228 229 229 231 235 241 245 249 252 254 259 264 269 274 277 280 285 289 292 291 290 290 289 290 292 292 293 294 293 293 293 293 295 299 302 305 306 306 310 316 321 321 308 286 281 284 281 277 275 277 282 285 288 293 297 301 304 305 308 312 314 313 311 308 305 301 296 292 291 290 289 288 288 287 285
213 215 217 219 221 221 222 224 224 226 229 230 230 232 234 239 244 249 252 253 255 259 264 270 276 282 288 292 293 292 291 290 289 290 291 292 293 293 293 293 294 293 293 295 298 301 302 300 302 309 314 316 307 285 273 275 276 272 272 275 280 285 289 294 300 302 302 301 302 306 312 313 311 310 308 303 297 290 287 286 286 286 287 288 290
214 215 217 219 222 223 223 225 225 227 229 230 231 233 235 239 242 245 249 253 255 258 263 270 278 284 289 291 292 292 292 291 290 288 288 289 290 290 290 291 292 292 291 292 294 297 297 294 294 300 307 309 302 282 267 268 270 267 267 270 276 283 290 297 303 304 303 301 299 301 308 311 309 307 306 303 298 292 288 286 287 289 292 294 295
215 216 217 220 223 224 225 226 226 228 230 231 232 233 236 239 241 242 244 250 256 262 269 275 282 286 287 289 292 294 293 292 292 289 286 286 287 286 286 288 290 289 287 288 292 292 291 288 288 293 299 302 297 280 263 259 260 258 258 264 272 283 293 300 303 305 305 302 300 300 305 309 308 306 304 301 297 294 291 288 288 291 293 295 294
217 217 218 220 223 224 225 225 226 227 229 232 233 234 236 238 240 241 242 247 257 265 272 278 283 287 288 290 292 294 295 295 296 293 289 288 288 287 288 289 290 285 280 283 287 287 285 283 283 288 293 296 295 280 261 254 256 256 256 260 270 283 294 297 301 305 307 305 304 303 305 308 308 305 303 300 296 293 290 288 288 288 288 287 287
218 218 218 220 222 222 222 223 224 225 226 228 231 232 233 237 241 244 246 250 257 263 271 277 283 286 289 291 293 295 297 299 300 298 294 291 289 288 287 287 286 282 278 281 284 281 280 279 278 284 289 291 292 281 262 255 257 255 253 257 269 282 289 293 298 304 307 308 309 306 305 307 308 304 302 300 296 292 289 289 290 290 287 284 283
222 221 218 219 221 220 220 222 222 222 223 224 227 229 231 235 241 247 251 255 258 263 270 276 282 286 289 292 295 297 299 303 305 302 298 294 290 286 285 284 282 280 278 281 281 277 276 276 278 284 289 289 288 277 260 255 256 254 253 258 268 278 284 290 297 304 308 310 309 305 304 306 307 303 302 301 297 295 293 292 293 293 290 289 289
226 225 220 218 219 219 218 221 222 222 223 224 224 227 230 234 239 245 251 256 260 266 272 276 279 283 285 290 295 298 302 307 308 306 302 296 289 283 282 281 279 277 277 278 279 276 275 277 281 287 287 284 282 272 255 252 253 254 255 258 265 274 282 289 298 305 309 308 306 305 305 306 306 304 303 302 300 299 298 297 296 295 293 295 297
228 228 223 217 217 218 218 221 223 222 224 225 225 227 230 234 239 244 249 256 263 269 272 274 277 279 283 289 293 296 302 308 309 308 303 296 289 279 274 274 276 276 276 277 277 274 274 276 281 285 282 279 281 272 254 246 248 250 252 255 262 273 282 291 299 304 306 305 305 306 307 306 305 304 303 301 299 298 298 297 296 296 296 298 299
229 228 224 219 217 217 218 221 224 224 225 226 225 227 230 234 239 244 250 257 263 267 270 272 275 280 285 288 290 294 302 307 308 306 301 295 291 283 276 274 273 273 273 272 271 271 273 273 276 280 280 280 283 271 247 239 244 249 252 256 265 276 285 292 299 303 305 304 304 305 305 303 303 302 300 297 296 296 295 295 295 295 296 297 297
229 228 224 219 216 217 217 220 224 225 226 227 226 227 230 234 239 244 250 256 261 264 267 271 277 283 287 287 289 297 304 307 305 303 298 294 291 285 279 276 273 272 272 266 263 267 269 269 272 279 281 280 278 258 236 236 245 249 252 258 266 276 283 290 297 302 303 301 301 303 303 302 301 300 298 296 296 296 295 295 294 294 294 294 294
228 230 226 219 217 218 217 218 222 224 226 228 227 227 230 234 238 243 249 255 258 260 265 271 277 282 286 289 293 300 305 305 302 299 295 291 288 283 280 280 281 282 278 269 263 263 265 267 272 277 279 278 268 245 233 239 247 250 253 257 265 273 281 290 297 300 299 298 300 301 300 300 301 300 300 298 297 297 295 294 294 294 293 292 292
225 230 229 222 218 219 218 217 220 223 225 227 227 228 230 233 237 243 248 251 254 259 265 270 273 278 285 290 294 299 303 301 298 295 291 286 281 279 280 283 285 285 281 275 268 263 264 268 273 277 280 276 255 239 237 242 248 253 257 261 268 276 285 293 297 297 298 299 299 299 298 299 300 299 299 297 295 295 294 294 295 295 294 293 295
224 228 231 226 221 220 220 219 219 221 223 225 226 227 229 232 236 240 245 249 254 260 263 264 269 277 286 291 293 296 300 298 294 291 289 283 278 278 280 281 279 277 275 272 269 266 266 269 274 279 280 265 240 235 240 245 250 257 262 267 273 281 288 294 294 295 297 299 299 298 298 299 299 298 297 296 296 297 296 297 298 296 294 295 296
224 226 229 229 225 222 221 220 219 221 222 223 225 226 228 232 236 239 242 247 253 256 256 257 266 278 286 290 292 293 294 294 292 290 287 281 278 279 278 274 272 270 267 266 267 267 266 269 275 278 269 244 232 236 245 250 256 261 266 272 280 287 291 292 292 294 296 297 298 299 299 299 299 299 300 300 300 300 299 298 297 295 294 295 296
224 225 228 230 229 225 222 221 221 221 222 222 224 226 228 231 235 236 240 246 250 251 251 257 269 280 286 289 291 291 290 291 291 289 285 280 278 278 274 270 269 267 264 265 267 265 265 269 272 268 252 235 233 239 246 254 261 268 275 283 290 293 292 292 293 295 297 298 299 299 299 300 300 299 300 300 301 300 298 297 296 294 294 295 297
226 226 228 231 230 226 223 221 221 222 222 222 224 226 229 231 233 235 238 243 245 246 250 261 273 281 287 290 290 289 287 288 289 287 284 281 279 278 276 274 273 270 267 266 263 260 264 268 264 254 244 239 240 243 248 257 267 276 284 290 293 293 292 293 295 297 298 299 299 298 298 298 298 298 299 299 299 298 296 294 294 293 293 295 297
227 226 228 230 230 227 223 222 222 222 222 223 225 227 229 231 232 233 235 238 241 244 253 267 281 293 300 298 291 288 288 289 288 286 283 281 279 279 280 280 278 273 268 262 256 257 263 264 255 248 246 243 244 249 257 266 275 283 287 289 290 290 290 293 295 297 298 297 297 297 297 297 296 297 299 300 299 297 294 292 292 292 293 295 297
230 226 228 230 228 225 223 221 220 220 222 224 225 227 228 229 230 231 232 236 240 248 263 280 293 305 307 299 289 287 288 287 286 283 281 279 279 279 280 281 277 269 263 260 259 261 262 254 245 245 247 247 250 257 266 274 280 284 286 288 288 289 292 294 296 296 296 296 296 297 297 296 296 297 298 298 297 295 294 293 293 294 295 296 298
235 227 227 229 228 224 222 220 219 219 222 224 225 226 228 228 227 228 231 236 243 259 277 287 296 304 305 295 285 283 284 283 282 281 279 277 277 276 277 278 274 266 261 262 262 260 254 246 246 249 250 252 258 266 273 279 282 284 285 287 289 292 294 295 295 296 298 298 297 297 296 296 296 297 297 295 293 292 292 292 293 292 292 293 296
240 229 227 228 227 223 220 218 218 219 222 222 223 224 224 223 224 227 231 238 251 269 280 287 295 300 297 289 282 280 280 280 281 278 274 273 272 272 273 272 270 269 267 262 258 255 253 251 251 250 249 254 263 271 276 280 281 282 285 288 291 294 294 296 298 300 301 301 299 298 298 298 298 297 294 290 289 289 290 292 293 293 292 292 294
241 230 226 226 225 223 220 218 218 219 220 219 219 219 218 219 222 226 233 246 263 275 282 289 294 294 289 283 279 278 278 280 280 274 269 268 266 267 268 265 265 269 270 263 261 262 261 254 246 245 251 259 267 272 276 279 282 285 288 291 293 295 297 300 301 303 304 304 302 302 302 301 299 296 290 287 287 289 292 293 294 294 293 294 295
238 229 225 224 223 221 219 217 217 216 214 213 212 212 213 217 223 231 244 260 272 279 284 287 288 286 283 279 278 278 278 277 274 268 262 260 258 260 264 266 266 268 268 264 263 261 255 247 244 251 259 265 270 275 280 284 287 289 291 293 295 297 300 302 302 305 306 305 304 306 306 302 298 292 288 287 288 289 290 291 292 292 293 293 293
231 224 222 221 219 218 217 217 215 212 208 207 207 208 213 222 233 245 257 267 273 277 280 281 281 281 280 278 278 279 278 271 264 257 252 250 252 258 267 271 266 261 258 249 242 244 248 251 256 260 263 267 274 281 285 288 289 291 292 294 297 300 302 301 302 305 306 304 306 308 306 301 295 290 286 285 285 286 288 291 294 295 294 294 293
223 217 216 216 214 213 213 211 209 206 204 204 206 212 223 236 246 255 261 266 270 275 280 282 281 280 278 277 278 278 275 264 255 249 246 249 257 266 272 267 255 248 246 239 237 244 252 256 258 260 265 274 282 286 288 289 290 291 294 297 299 301 301 301 301 303 304 304 306 308 306 301 297 292 288 286 287 290 295 298 300 299 297 296 295
212 209 210 210 208 206 204 202 201 201 203 208 215 224 234 243 249 255 262 269 277 283 285 283 280 277 276 276 277 275 267 255 249 245 245 254 263 269 269 259 246 240 240 240 244 249 253 256 259 266 275 284 289 291 291 292 293 295 297 297 298 298 300 301 302 304 305 305 308 310 310 307 304 301 298 298 300 303 304 304 303 300 298 297 296
203 202 202 199 197 197 196 195 197 202 209 216 223 228 234 241 250 261 273 284 290 290 287 284 281 280 279 277 274 267 254 246 246 244 244 249 257 265 264 255 246 240 240 245 250 251 252 257 267 278 288 292 293 291 290 291 293 295 297 298 297 297 298 301 304 306 307 308 311 314 313 310 308 307 306 307 308 308 305 303 301 299 298 298 297
191 189 186 185 187 191 193 196 201 206 209 213 218 226 241 258 268 275 281 286 286 283 281 281 283 283 280 272 263 254 243 238 241 245 245 248 257 262 256 245 242 243 245 248 249 248 254 265 277 287 292 293 292 292 292 293 297 300 300 300 299 298 299 302 305 307 308 310 313 315 313 309 307 306 307 308 307 304 301 298 298 299 300 301 302
177 176 176 179 184 187 189 193 195 197 202 213 228 248 264 276 284 286 285 282 278 276 275 275 275 273 268 259 249 240 231 231 238 240 238 243 252 253 246 240 242 246 247 246 248 253 265 277 286 291 292 293 295 297 299 303 307 307 306 304 303 302 302 304 306 308 310 311 312 313 310 306 303 303 304 304 302 299 298 298 299 301 303 305 306
172 175 177 180 180 178 182 188 194 206 226 243 258 271 279 282 286 287 283 276 273 273 271 266 261 260 258 252 243 232 225 227 233 232 229 233 238 241 242 243 244 245 245 248 256 267 277 285 290 291 292 296 299 300 302 304 306 306 304 303 302 302 302 303 304 306 307 307 307 306 304 301 300 301 301 299 297 298 300 302 303 305 307 310 310
171 174 175 176 176 178 187 201 217 233 246 260 275 283 284 282 281 278 272 266 265 264 260 256 258 259 255 246 237 229 225 227 229 229 231 233 234 237 240 242 242 243 246 254 266 276 284 289 292 292 294 297 299 300 301 302 301 300 298 297 297 297 297 298 299 301 302 303 303 301 299 298 298 299 298 297 299 302 304 306 307 310 313 314 313
174 175 178 183 190 197 208 222 236 250 267 281 283 278 272 270 268 262 256 253 252 251 249 252 256 255 249 240 232 226 226 228 229 231 234 233 231 235 238 238 239 244 252 262 272 281 288 293 294 295 298 300 299 299 300 299 297 296 295 293 292 291 292 294 296 297 299 300 300 299 297 296 297 298 299 301 303 305 306 308 311 314 315 315 315
186 192 204 220 226 227 231 243 263 277 281 279 269 257 250 249 248 243 239 240 240 240 242 247 251 252 249 241 233 229 228 227 227 231 234 234 233 235 237 237 240 247 258 267 276 285 291 295 296 298 301 301 300 298 298 296 294 293 291 289 287 287 287 289 291 292 294 295 296 296 296 297 298 299 301 303 305 305 307 311 314 316 317 317 318
221 233 245 250 248 246 253 269 279 277 269 255 242 234 230 230 232 233 232 232 234 237 242 248 255 259 256 250 245 240 234 228 228 233 237 237 236 236 237 240 247 256 266 276 283 290 294 297 299 300 300 299 299 298 297 296 294 292 291 291 289 288 288 288 289 291 293 294 296 298 299 300 300 299 301 303 303 305 309 313 316 318 319 319 321
227 232 237 243 251 261 269 272 265 255 243 231 226 226 224 224 229 230 227 229 237 243 247 254 260 261 258 255 252 248 244 241 241 242 239 236 236 238 243 251 260 269 277 283 288 293 297 300 300 299 297 296 296 296 294 293 292 292 293 293 292 291 293 293 293 293 294 295 298 300 299 298 298 298 299 301 302 306 312 315 318 320 321 321 321
222 223 221 234 261 262 252 241 234 230 227 228 232 236 236 235 233 229 231 240 248 252 256 262 264 262 261 260 260 259 258 254 249 243 237 236 239 245 253 262 271 279 283 286 290 294 297 297 296 294 293 293 291 289 289 290 291 293 292 291 291 294 296 296 294 294 294 295 298 299 296 295 296 297 299 301 304 309 314 318 320 321 320 321 323
246 256 251 241 241 236 226 221 222 230 236 240 245 249 250 249 247 243 246 252 257 262 267 270 267 263 263 264 264 262 256 250 246 241 238 240 246 253 261 270 279 283 286 289 292 295 296 296 295 294 293 292 291 291 292 293 293 293 292 291 293 295 295 294 293 294 297 300 301 300 298 297 297 299 301 304 307 312 316 320 321 320 320 322 326
248 262 257 247 241 245 251 250 243 239 242 246 248 250 254 258 259 256 253 254 256 261 267 268 263 262 264 265 265 262 254 248 244 241 241 246 252 259 267 275 281 283 285 289 293 295 295 295 295 295 295 296 296 295 296 296 295 294 292 291 292 293 293 294 296 299 302 304 304 301 300 299 300 301 303 305 308 313 317 320 320 319 321 324 328
226 229 238 243 243 246 252 251 244 239 240 241 242 246 254 260 260 257 255 253 250 251 260 263 260 262 265 265 261 257 253 249 246 245 247 251 256 263 270 276 278 279 282 286 289 291 292 293 294 295 296 297 296 296 297 297 295 292 289 288 289 292 296 299 301 303 304 304 302 300 300 301 301 302 303 305 309 313 316 317 318 319 323 326 330
225 231 241 244 241 239 240 242 242 241 240 239 240 242 245 246 248 254 261 259 252 248 253 259 260 264 267 263 257 253 250 248 247 249 252 257 262 267 271 273 275 277 281 284 285 287 289 291 292 293 294 295 296 299 301 301 299 295 291 289 291 297 301 302 302 302 303 304 302 302 302 301 299 300 302 305 309 312 314 317 318 320 325 329 332
224 237 244 241 237 236 236 237 238 237 237 237 237 235 231 230 234 242 249 252 253 256 259 262 264 264 262 258 256 253 251 250 252 255 258 263 266 268 269 270 272 276 279 281 283 287 293 297 296 295 295 296 298 299 301 302 300 296 291 291 295 298 299 298 299 301 303 304 302 301 299 297 297 299 300 303 307 310 313 316 319 321 326 330 333
223 232 237 235 235 235 235 236 236 237 242 245 244 240 239 238 234 231 237 250 261 267 268 265 264 262 259 256 254 253 254 257 261 263 264 266 267 268 268 271 274 278 280 281 285 292 298 300 298 294 293 293 295 297 300 299 295 289 287 290 292 292 293 295 298 301 302 301 299 298 296 294 295 296 297 300 305 309 313 316 317 320 325 330 334
229 236 237 235 234 236 240 243 241 238 240 241 237 232 239 243 241 243 256 265 268 268 266 262 260 258 256 254 253 254 258 262 264 266 269 271 273 275 277 279 281 282 284 286 290 293 295 293 289 288 289 292 295 299 300 295 287 283 285 287 287 287 292 296 298 298 299 298 296 293 291 290 290 291 294 298 302 307 311 313 314 317 324 329 333
228 235 240 240 239 239 242 245 244 238 234 231 225 223 231 241 248 258 264 265 262 258 256 256 256 257 257 256 255 257 259 261 263 265 269 272 274 276 277 279 282 284 286 288 291 293 293 294 295 296 298 299 299 298 297 293 287 284 283 281 282 286 293 295 295 296 297 296 292 289 287 286 285 286 290 294 299 305 309 311 312 315 321 326 331
229 232 237 243 246 243 239 241 242 240 237 235 234 235 242 249 255 258 260 259 257 255 254 254 255 254 255 257 258 259 260 261 262 264 266 268 271 271 272 274 279 282 285 287 289 291 294 297 298 297 296 296 294 291 290 291 290 287 281 278 281 289 295 293 293 296 296 292 288 286 284 282 280 281 285 291 297 303 307 308 309 312 316 322 327
230 230 233 238 241 241 238 237 235 233 233 237 239 241 245 249 252 251 249 248 250 249 248 251 256 258 260 262 263 263 263 262 262 262 262 263 264 266 268 272 276 278 280 281 284 287 290 292 291 290 292 297 296 290 283 282 282 281 280 281 287 294 295 291 291 293 293 290 288 284 281 279 277 277 281 287 293 299 303 304 306 309 313 318 323
225 228 231 231 229 230 233 232 227 227 234 243 246 244 242 241 242 241 239 238 240 242 246 253 259 263 265 265 265 266 266 266 266 264 263 262 261 263 267 271 273 274 275 277 279 283 286 287 286 288 294 298 294 285 277 274 275 278 282 287 291 292 289 287 287 289 289 288 286 282 279 278 275 274 277 283 288 294 299 302 304 308 312 316 320
219 223 224 221 220 226 234 238 241 243 244 242 238 235 234 232 231 229 229 233 239 245 253 260 264 267 267 266 264 263 262 262 261 259 257 256 256 258 261 266 269 271 272 273 275 279 282 283 284 289 293 293 290 285 280 277 276 277 279 283 285 286 285 285 285 286 286 286 284 281 279 277 274 272 274 278 283 289 295 300 303 309 313 316 316
Height
3157 3159 3161 3163 3165 3167 3168 3170 3172 3174 3176 3177 3179 3180 3182 3183 3184 3185 3186 3188 3189 3190 3191 3192 3192 3193 3194 3194 3195 3195 3195 3195 3194 3194 3194 3194 3193 3193 3193 3193 3193 3193 3193 3193 3192 3192 3192 3191 3191 3190 3189 3188 3187 3187 3187 3187 3186 3186 3185 3185 3185 3184 3184 3184 3184 3183 3181 3180 3180 3178 3177 3176 3174 3173 3172 3172 3171 3171 3170 3170 3170 3170 3170 3170 3170
3155 3157 3159 3161 3163 3165 3166 3168 3170 3172 3173 3175 3177 3178 3179 3181 3182 3183 3184 3185 3187 3188 3189 3190 3190 3191 3191 3191 3192 3192 3192 3192 3192 3192 3192 3192 3191 3191 3191 3190 3190 3190 3190 3190 3190 3190 3189 3189 3188 3187 3186 3186 3185 3185 3184 3184 3184 3183 3183 3183 3182 3182 3181 3181 3181 3180 3179 3178 3177 3176 3175 3174 3173 3171 3169 3168 3168 3167 3166 3166 3166 3166 3165 3165 3165
3153 3154 3156 3158 3161 3162 3164 3166 3168 3169 3171 3173 3175 3176 3177 3178 3179 3181 3182 3183 3184 3185 3186 3187 3188 3188 3188 3189 3189 3189 3189 3190 3190 3189 3189 3189 3189 3189 3188 3187 3187 3187 3187 3187 3187 3186 3186 3186 3185 3185 3184 3183 3183 3182 3182 3181 3181 3181 3181 3180 3180 3179 3179 3178 3178 3178 3177 3176 3175 3174 3173 3172 3171 3169 3167 3166 3164 3163 3162 3162 3161 3161 3161 3160 3160
3150 3152 3154 3156 3158 3160 3162 3164 3165 3166 3168 3170 3172 3174 3175 3176 3177 3179 3180 3181 3182 3183 3184 3184 3185 3185 3185 3185 3186 3186 3186 3187 3187 3187 3186 3186 3186 3186 3185 3185 3184 3184 3184 3184 3184 3183 3183 3183 3182 3182 3181 3181 3180 3180 3179 3179 3178 3178 3178 3178 3178 3177 3176 3176 3175 3175 3174 3174 3173 3172 3170 3169 3168 3167 3165 3164 3162 3160 3159 3158 3158 3157 3156 3156 3155
3147 3149 3151 3153 3155 3157 3159 3161 3162 3164 3166 3168 3170 3171 3173 3174 3175 3176 3177 3178 3179 3180 3181 3181 3182 3182 3183 3183 3183 3183 3183 3183 3183 3184 3183 3183 3183 3183 3182 3182 3182 3181 3181 3180 3180 3180 3180 3180 3179 3179 3179 3178 3178 3177 3177 3176 3176 3176 3176 3176 3175 3175 3174 3174 3173 3173 3172 3172 3171 3170 3168 3167 3166 3164 3162 3160 3160 3158 3157 3155 3154 3154 3153 3152 3151
3144 3147 3149 3151 3152 3155 3157 3158 3160 3162 3164 3165 3167 3169 3170 3171 3173 3174 3175 3175 3176 3177 3178 3179 3179 3179 3180 3180 3180 3180 3180 3179 3179 3179 3180 3180 3179 3179 3179 3178 3178 3178 3178 3177 3177 3177 3177 3176 3176 3176 3176 3175 3175 3174 3174 3174 3173 3173 3173 3173 3173 3173 3172 3172 3171 3170 3169 3169 3169 3168 3167 3165 3164 3163 3161 3158 3156 3156 3154 3153 3152 3150 3149 3148 3147
3142 3144 3146 3148 3150 3152 3154 3156 3158 3160 3161 3163 3164 3166 3167 3169 3170 3171 3172 3173 3173 3174 3175 3176 3176 3177 3177 3177 3177 3177 3176 3176 3175 3175 3175 3176 3176 3175 3174 3174 3174 3174 3174 3174 3173 3173 3173 3173 3173 3172 3172 3172 3171 3171 3171 3170 3170 3170 3171 3171 3171 3170 3170 3169 3168 3167 3166 3166 3165 3164 3164 3163 3161 3160 3159 3156 3154 3152 3151 3149 3149 3148 3146 3144 3144
3138 3141 3143 3145 3147 3149 3152 3154 3156 3157 3159 3160 3162 3163 3164 3165 3167 3168 3169 3170 3171 3171 3172 3173 3173 3174 3174 3174 3174 3173 3172 3172 3171 3171 3172 3172 3172 3171 3170 3170 3170 3170 3170 3170 3170 3169 3169 3169 3169 3169 3168 3168 3168 3168 3167 3167 3168 3168 3168 3168 3168 3168 3167 3167 3166 3165 3163 3163 3162 3161 3160 3159 3157 3156 3155 3153 3150 3149 3147 3146 3145 3145 3144 3142 3141
3135 3137 3140 3142 3144 3147 3149 3151 3153 3154 3156 3157 3159 3160 3162 3162 3163 3165 3166 3167 3168 3169 3170 3170 3171 3171 3171 3171 3171 3170 3169 3168 3168 3168 3168 3168 3168 3167 3167 3166 3166 3166 3166 3166 3165 3165 3166 3166 3166 3165 3165 3165 3165 3164 3164 3165 3165 3165 3165 3165 3165 3165 3164 3164 3163 3162 3160 3159 3158 3157 3156 3155 3154 3152 3150 3149 3147 3145 3144 3142 3141 3141 3140 3139 3138
3132 3134 3136 3139 3142 3144 3147 3148 3150 3151 3153 3154 3156 3157 3159 3160 3160 3161 3162 3164 3165 3166 3167 3167 3168 3168 3168 3168 3167 3167 3166 3165 3164 3164 3164 3163 3163 3163 3162 3162 3162 3162 3162 3162 3161 3161 3162 3162 3161 3162 3161 3161 3161 3161 3160 3161 3162 3162 3162 3162 3162 3162 3161 3161 3160 3158 3156 3155 3154 3153 3152 3151 3150 3148 3146 3145 3143 3141 3140 3138 3137 3136 3134 3133 3134
3129 3130 3132 3136 3139 3141 3144 3145 3146 3148 3149 3151 3153 3154 3155 3156 3157 3158 3159 3161 3162 3163 3163 3164 3165 3165 3165 3165 3165 3164 3163 3162 3161 3161 3160 3158 3159 3159 3158 3158 3158 3158 3158 3158 3157 3157 3158 3157 3158 3158 3158 3157 3158 3157 3157 3158 3159 3160 3160 3159 3159 3159 3159 3158 3156 3155 3153 3151 3150 3149 3148 3147 3146 3144 3142 3140 3138 3136 3135 3134 3132 3131 3129 3128 3127
3126 3127 3129 3133 3135 3138 3140 3142 3143 3144 3146 3148 3150 3151 3152 3153 3154 3155 3156 3157 3159 3159 3160 3161 3162 3162 3163 3163 3162 3162 3161 3160 3158 3157 3156 3155 3154 3154 3154 3153 3153 3153 3153 3154 3154 3154 3154 3154 3154 3155 3154 3153 3153 3153 3153 3155 3157 3157 3157 3157 3157 3157 3156 3154 3153 3151 3149 3147 3146 3146 3144 3143 3142 3141 3138 3136 3134 3133 3131 3129 3128 3126 3124 3123 3122
3122 3124 3126 3129 3131 3134 3136 3138 3139 3141 3143 3145 3146 3148 3149 3150 3151 3152 3153 3154 3155 3156 3157 3157 3158 3159 3159 3160 3160 3160 3159 3157 3156 3155 3153 3151 3151 3150 3149 3149 3149 3149 3150 3150 3151 3151 3151 3151 3151 3151 3151 3150 3150 3149 3150 3152 3153 3154 3154 3154 3154 3153 3152 3151 3149 3148 3146 3144 3142 3142 3141 3139 3138 3137 3135 3132 3130 3129 3127 3125 3124 3122 3120 3119 3118
3117 3120 3122 3125 3127 3130 3133 3135 3136 3137 3139 3141 3143 3144 3146 3147 3148 3149 3150 3151 3152 3153 3153 3154 3154 3155 3156 3156 3156 3157 3156 3154 3153 3152 3150 3148 3147 3146 3146 3145 3145 3146 3146 3147 3147 3147 3148 3148 3148 3147 3147 3147 3147 3147 3147 3148 3149 3150 3150 3150 3150 3150 3149 3148 3146 3144 3143 3141 3139 3137 3137 3136 3134 3133 3131 3128 3126 3124 3122 3121 3120 3119 3117 3115 3114
3113 3115 3118 3121 3123 3125 3128 3130 3132 3134 3136 3137 3139 3141 3142 3144 3145 3146 3147 3148 3149 3150 3150 3151 3151 3152 3152 3152 3152 3152 3152 3151 3149 3148 3147 3145 3144 3144 3143 3142 3142 3143 3143 3143 3144 3144 3144 3144 3144 3143 3143 3143 3144 3144 3144 3145 3146 3146 3146 3146 3146 3146 3146 3145 3143 3141 3139 3137 3135 3134 3133 3132 3130 3128 3126 3124 3122 3120 3118 3117 3116 3114 3113 3111 3111
3109 3111 3113 3116 3118 3120 3123 3126 3128 3130 3132 3134 3136 3137 3139 3140 3141 3143 3144 3145 3146 3147 3148 3148 3148 3149 3149 3148 3148 3148 3148 3147 3146 3145 3143 3142 3141 3141 3140 3139 3139 3139 3139 3139 3140 3140 3140 3139 3139 3139 3140 3140 3140 3140 3141 3142 3142 3142 3142 3142 3142 3143 3143 3142 3140 3137 3135 3133 3132 3131 3130 3128 3126 3124 3123 3121 3119 3117 3114 3113 3112 3110 3107 3106 3106
3105 3106 3108 3111 3113 3116 3118 3121 3124 3126 3128 3130 3132 3134 3135 3137 3138 3140 3141 3142 3143 3144 3145 3145 3146 3146 3146 3145 3145 3145 3144 3143 3142 3141 3140 3138 3137 3137 3137 3136 3135 3135 3135 3135 3136 3136 3136 3136 3136 3136 3136 3137 3137 3137 3137 3138 3139 3139 3139 3139 3139 3139 3139 3138 3136 3134 3132 3130 3129 3128 3126 3124 3122 3120 3119 3117 3115 3113 3110 3108 3107 3105 3103 3101 3101
3100 3102 3104 3106 3109 3111 3114 3117 3120 3122 3124 3127 3129 3130 3132 3134 3135 3137 3138 3139 3140 3141 3142 3143 3143 3143 3143 3142 3141 3141 3140 3139 3138 3137 3135 3134 3133 3133 3133 3132 3132 3132 3131 3132 3132 3132 3132 3133 3133 3133 3133 3134 3134 3134 3134 3135 3136 3136 3135 3135 3135 3135 3134 3133 3132 3130 3128 3127 3125 3123 3121 3119 3117 3115 3113 3112 3110 3108 3105 3103 3103 3101 3099 3097 3096
3095 3098 3099 3102 3104 3107 3110 3112 3115 3118 3120 3123 3125 3127 3129 3130 3132 3133 3134 3136 3137 3138 3139 3139 3140 3140 3140 3139 3138 3137 3136 3135 3134 3133 3132 3130 3129 3129 3129 3128 3128 3128 3128 3128 3129 3129 3129 3129 3129 3130 3130 3131 3131 3132 3132 3133 3133 3132 3132 3131 3131 3131 3130 3128 3127 3125 3123 3122 3120 3118 3116 3114 3112 3110 3109 3108 3106 3104 3102 3100 3098 3097 3095 3094 3092
3091 3093 3095 3097 3099 3102 3105 3108 3111 3114 3117 3119 3121 3123 3125 3127 3128 3130 3131 3132 3133 3134 3135 3136 3136 3136 3136 3135 3135 3134 3133 3132 3130 3129 3128 3127 3126 3125 3125 3125 3124 3124 3124 3125 3126 3126 3126 3126 3127 3127 3128 3128 3129 3129 3130 3130 3130 3129 3129 3128 3128 3127 3125 3124 3122 3120 3118 3117 3115 3113 3112 3110 3108 3106 3105 3104 3103 3101 3099 3097 3095 3094 3091 3090 3088
3086 3088 3090 3092 3095 3098 3101 3104 3107 3110 3113 3115 3117 3120 3122 3124 3125 3126 3127 3128 3129 3131 3132 3132 3133 3133 3133 3133 3132 3130 3129 3128 3126 3125 3124 3123 3122 3122 3121 3121 3120 3120 3121 3122 3122 3122 3123 3124 3124 3125 3125 3126 3126 3127 3127 3127 3127 3126 3125 3124 3124 3122 3121 3119 3117 3115 3114 3112 3111 3109 3107 3106 3104 3103 3101 3100 3098 3097 3095 3094 3092 3090 3088 3086 3084
3080 3082 3084 3087 3090 3094 3097 3100 3103 3106 3109 3112 3114 3116 3118 3120 3121 3122 3123 3125 3126 3127 3128 3128 3128 3127 3128 3129 3128 3126 3124 3124 3122 3121 3120 3119 3119 3118 3117 3117 3117 3117 3117 3118 3119 3120 3121 3122 3122 3123 3123 3124 3124 3124 3124 3124 3123 3123 3121 3120 3119 3118 3116 3114 3113 3111 3110 3108 3107 3105 3103 3102 3101 3099 3098 3096 3094 3093 3091 3090 3089 3087 3085 3083 3081
3075 3077 3079 3082 3086 3090 3093 3096 3099 3102 3105 3108 3110 3112 3115 3116 3118 3119 3120 3121 3123 3123 3124 3123 3122 3122 3122 3123 3123 3121 3120 3119 3118 3117 3116 3115 3115 3114 3114 3114 3114 3114 3115 3116 3117 3118 3119 3120 3121 3121 3121 3121 3121 3121 3121 3120 3119 3118 3117 3116 3115 3113 3112 3110 3109 3108 3106 3104 3103 3101 3099 3098 3097 3095 3094 3092 3090 3089 3087 3086 3085 3084 3082 3080 3078
3070 3072 3074 3078 3082 3086 3089 3092 3096 3099 3102 3104 3106 3109 3111 3113 3114 3115 3116 3117 3118 3118 3119 3118 3117 3117 3118 3118 3118 3117 3116 3115 3114 3113 3112 3111 3111 3111 3111 3111 3111 3111 3112 3113 3114 3116 3117 3117 3118 3118 3118 3118 3118 3118 3117 3116 3115 3114 3113 3112 3111 3110 3108 3107 3105 3104 3102 3100 3098 3097 3095 3094 3093 3091 3089 3088 3086 3085 3084 3083 3082 3080 3078 3077 3075
3065 3066 3070 3074 3078 3081 3086 3090 3093 3096 3099 3101 3103 3105 3107 3109 3110 3111 3112 3113 3113 3114 3114 3114 3113 3113 3114 3114 3113 3112 3111 3111 3110 3109 3108 3108 3108 3108 3108 3109 3109 3109 3111 3111 3112 3112 3113 3114 3114 3115 3115 3115 3115 3115 3114 3113 3112 3111 3110 3109 3107 3106 3104 3102 3101 3100 3098 3096 3095 3093 3092 3090 3088 3087 3085 3083 3082 3081 3080 3079 3078 3077 3074 3073 3071
3059 3061 3065 3068 3072 3077 3082 3087 3090 3092 3095 3097 3099 3101 3103 3104 3106 3107 3108 3109 3109 3109 3109 3109 3109 3110 3110 3109 3109 3108 3108 3107 3106 3106 3105 3105 3106 3106 3106 3107 3107 3108 3108 3108 3109 3109 3110 3111 3111 3112 3112 3112 3112 3111 3111 3110 3109 3107 3106 3105 3103 3102 3100 3098 3097 3096 3094 3093 3092 3091 3088 3086 3085 3083 3081 3080 3079 3078 3076 3075 3075 3073 3071 3068 3067
3053 3055 3058 3062 3068 3074 3079 3083 3085 3088 3090 3092 3095 3097 3098 3100 3102 3103 3104 3105 3105 3105 3105 3105 3106 3106 3106 3105 3105 3105 3105 3104 3103 3103 3103 3104 3104 3104 3104 3104 3105 3105 3105 3106 3106 3107 3108 3108 3109 3109 3109 3109 3109 3108 3108 3107 3105 3104 3102 3101 3099 3098 3096 3094 3093 3093 3092 3090 3089 3088 3086 3084 3082 3080 3079 3077 3076 3075 3073 3071 3070 3069 3067 3064 3063
3047 3051 3055 3059 3065 3071 3075 3079 3082 3084 3086 3089 3091 3093 3095 3097 3098 3099 3100 3101 3101 3101 3101 3102 3103 3103 3102 3101 3101 3101 3102 3102 3101 3100 3101 3101 3101 3102 3102 3102 3102 3102 3103 3103 3104 3105 3106 3106 3106 3106 3106 3106 3106 3106 3105 3103 3102 3100 3098 3097 3095 3094 3092 3091 3090 3090 3089 3087 3086 3085 3083 3081 3079 3078 3076 3075 3073 3071 3069 3067 3066 3064 3063 3060 3059
3045 3049 3054 3059 3064 3068 3072 3076 3079 3082 3084 3086 3088 3090 3092 3094 3095 3096 3096 3096 3097 3098 3098 3099 3099 3099 3098 3098 3097 3096 3097 3098 3097 3097 3098 3099 3099 3099 3100 3100 3100 3100 3101 3102 3102 3103 3104 3104 3104 3104 3104 3104 3103 3102 3101 3099 3097 3096 3094 3093 3091 3090 3088 3087 3087 3087 3086 3084 3083 3081 3079 3077 3076 3074 3073 3071 3069 3067 3065 3063 3062 3060 3059 3057 3055
3043 3047 3053 3058 3062 3066 3070 3074 3077 3080 3082 3084 3085 3087 3089 3090 3091 3091 3092 3092 3093 3094 3095 3095 3095 3094 3094 3095 3094 3093 3093 3094 3094 3095 3095 3096 3097 3097 3097 3098 3098 3098 3099 3100 3101 3101 3102 3102 3102 3101 3101 3101 3100 3099 3097 3096 3094 3092 3091 3089 3088 3087 3085 3084 3084 3084 3082 3080 3078 3077 3075 3073 3072 3071 3069 3067 3065 3064 3062 3060 3058 3057 3055 3053 3052
3043 3048 3053 3058 3061 3065 3069 3072 3074 3077 3078 3080 3081 3083 3085 3086 3087 3087 3088 3088 3089 3090 3090 3091 3090 3088 3088 3090 3091 3091 3091 3091 3091 3092 3093 3093 3094 3094 3095 3095 3096 3096 3097 3098 3099 3099 3100 3100 3099 3099 3098 3097 3096 3095 3094 3092 3091 3089 3087 3086 3085 3084 3083 3082 3081 3080 3078 3076 3075 3073 3072 3070 3069 3067 3066 3064 3062 3061 3059 3057 3056 3054 3052 3050 3048
3047 3051 3055 3058 3061 3064 3067 3070 3072 3073 3075 3076 3078 3079 3080 3081 3082 3083 3084 3085 3085 3085 3086 3086 3085 3084 3084 3085 3086 3087 3088 3088 3089 3090 3091 3091 3092 3092 3093 3093 3093 3094 3095 3096 3096 3097 3097 3097 3096 3096 3095 3094 3092 3091 3089 3087 3086 3085 3083 3082 3081 3079 3078 3077 3076 3075 3073 3072 3071 3070 3069 3068 3066 3064 3063 3061 3059 3058 3057 3055 3053 3051 3049 3047 3045
3051 3054 3056 3058 3061 3063 3065 3067 3069 3070 3072 3073 3074 3075 3076 3077 3078 3080 3081 3082 3082 3081 3081 3081 3081 3081 3081 3081 3082 3083 3085 3086 3087 3087 3088 3089 3090 3090 3090 3091 3091 3092 3093 3094 3094 3095 3095 3095 3094 3093 3091 3089 3088 3086 3085 3084 3083 3082 3080 3078 3077 3075 3074 3073 3072 3071 3070 3069 3068 3067 3066 3065 3063 3061 3060 3059 3057 3055 3053 3051 3049 3048 3046 3044 3042
3051 3053 3054 3056 3058 3060 3062 3064 3065 3067 3068 3069 3069 3070 3072 3074 3076 3077 3078 3078 3078 3078 3077 3078 3078 3078 3078 3078 3079 3080 3082 3083 3084 3085 3086 3087 3087 3088 3088 3089 3090 3090 3091 3092 3092 3092 3092 3092 3091 3089 3087 3086 3085 3084 3082 3081 3080 3080 3078 3077 3075 3073 3072 3070 3069 3069 3068 3067 3065 3064 3063 3061 3060 3058 3057 3056 3054 3052 3050 3048 3046 3045 3043 3041 3040
3049 3050 3052 3054 3055 3057 3058 3059 3061 3063 3064 3065 3066 3069 3070 3071 3072 3073 3074 3074 3074 3074 3074 3075 3075 3075 3075 3075 3077 3078 3080 3081 3082 3083 3084 3084 3085 3086 3086 3087 3087 3088 3089 3089 3089 3090 3089 3089 3087 3085 3084 3083 3082 3081 3080 3078 3077 3077 3076 3075 3073 3071 3070 3068 3067 3066 3065 3064 3062 3061 3060 3058 3057 3055 3054 3052 3051 3049 3047 3046 3044 3042 3041 3039 3037
3048 3049 3050 3051 3052 3054 3055 3055 3056 3058 3060 3062 3065 3067 3068 3068 3068 3069 3070 3071 3071 3071 3072 3072 3073 3073 3073 3073 3075 3076 3077 3078 3080 3081 3081 3082 3083 3083 3084 3085 3085 3086 3086 3087 3087 3087 3086 3085 3084 3082 3081 3080 3079 3078 3077 3075 3074 3073 3073 3072 3071 3069 3067 3066 3065 3063 3062 3061 3060 3058 3057 3056 3054 3053 3051 3049 3048 3046 3045 3043 3042 3041 3039 3037 3035
3046 3046 3047 3048 3049 3050 3051 3052 3054 3056 3058 3061 3063 3064 3064 3065 3065 3066 3067 3068 3069 3069 3070 3070 3070 3071 3071 3072 3073 3074 3075 3076 3077 3078 3079 3080 3081 3081 3082 3082 3083 3083 3083 3083 3083 3083 3082 3081 3080 3079 3078 3077 3076 3074 3073 3071 3070 3069 3069 3068 3067 3066 3065 3063 3062 3061 3059 3058 3057 3056 3054 3053 3051 3050 3048 3047 3045 3044 3043 3041 3040 3039 3037 3035 3032
3042 3043 3045 3045 3046 3046 3047 3050 3053 3055 3058 3059 3060 3061 3061 3062 3062 3064 3065 3066 3067 3067 3068 3068 3068 3069 3069 3070 3071 3072 3073 3074 3075 3076 3077 3077 3078 3079 3079 3079 3080 3080 3079 3079 3079 3078 3078 3077 3077 3076 3075 3074 3072 3071 3069 3068 3067 3066 3065 3065 3064 3062 3061 3060 3059 3058 3057 3055 3054 3053 3051 3050 3049 3047 3046 3045 3043 3042 3041 3040 3038 3037 3035 3033 3031
3040 3041 3042 3042 3043 3045 3047 3050 3052 3054 3055 3056 3057 3057 3058 3059 3060 3062 3063 3064 3064 3065 3066 3066 3067 3067 3067 3068 3069 3069 3070 3071 3072 3073 3074 3075 3075 3076 3076 3076 3076 3075 3075 3074 3074 3074 3074 3073 3073 3072 3072 3070 3069 3068 3067 3065 3064 3063 3062 3062 3060 3059 3058 3057 3056 3055 3054 3052 3051 3050 3049 3048 3047 3045 3044 3042 3041 3040 3039 3038 3036 3035 3033 3031 3029
3037 3038 3039 3040 3043 3046 3047 3048 3049 3050 3051 3053 3053 3054 3055 3056 3058 3060 3061 3061 3062 3063 3063 3064 3064 3064 3065 3065 3066 3067 3068 3069 3070 3071 3071 3072 3073 3073 3073 3073 3072 3071 3070 3070 3070 3070 3070 3069 3068 3067 3067 3066 3065 3064 3063 3062 3061 3060 3059 3059 3058 3057 3056 3054 3053 3052 3051 3049 3048 3047 3046 3045 3044 3043 3042 3040 3039 3038 3037 3036 3035 3033 3031 3029 3028
3035 3036 3037 3040 3042 3044 3044 3044 3045 3047 3048 3049 3050 3051 3051 3052 3054 3056 3057 3058 3059 3060 3061 3061 3061 3062 3062 3063 3064 3064 3065 3066 3067 3068 3069 3069 3070 3070 3070 3070 3069 3068 3067 3067 3066 3066 3066 3065 3063 3062 3061 3061 3061 3060 3059 3058 3058 3057 3057 3056 3055 3054 3053 3052 3050 3049 3048 3047 3046 3045 3043 3042 3041 3041 3040 3039 3038 3037 3036 3035 3033 3032 3030 3028 3026
3034 3035 3037 3038 3040 3040 3041 3041 3042 3043 3044 3046 3047 3048 3048 3048 3050 3052 3053 3055 3056 3057 3059 3059 3058 3059 3060 3060 3061 3062 3063 3064 3065 3065 3066 3066 3066 3067 3067 3067 3066 3065 3064 3064 3064 3063 3062 3061 3060 3058 3057 3056 3056 3056 3056 3055 3055 3054 3054 3053 3052 3051 3050 3049 3048 3047 3046 3044 3043 3042 3041 3040 3039 3039 3038 3037 3036 3035 3034 3033 3032 3030 3029 3027 3025
3033 3033 3035 3036 3037 3038 3039 3040 3040 3041 3042 3044 3045 3045 3045 3046 3047 3048 3050 3051 3052 3055 3056 3056 3056 3057 3057 3058 3059 3060 3060 3061 3062 3062 3063 3063 3063 3063 3064 3063 3062 3062 3061 3061 3060 3059 3059 3058 3057 3055 3054 3053 3052 3052 3052 3052 3052 3051 3050 3050 3049 3048 3047 3046 3045 3044 3043 3042 3041 3040 3039 3038 3038 3037 3036 3036 3035 3034 3033 3032 3030 3029 3027 3026 3024
3031 3031 3032 3033 3035 3037 3038 3038 3039 3039 3040 3041 3042 3042 3042 3043 3044 3044 3046 3047 3049 3052 3053 3053 3054 3054 3055 3056 3056 3057 3058 3058 3059 3059 3059 3059 3059 3060 3060 3060 3059 3059 3059 3057 3057 3056 3056 3055 3054 3052 3051 3050 3049 3049 3049 3049 3048 3048 3047 3046 3046 3045 3044 3044 3043 3042 3040 3039 3038 3038 3037 3036 3036 3035 3035 3034 3033 3033 3032 3031 3029 3028 3026 3025 3023
3028 3028 3030 3031 3033 3034 3035 3036 3036 3037 3038 3040 3040 3040 3041 3042 3043 3043 3044 3045 3047 3048 3049 3050 3051 3051 3052 3053 3053 3054 3054 3055 3055 3055 3055 3056 3056 3056 3056 3056 3056 3056 3055 3054 3053 3053 3052 3052 3051 3050 3049 3047 3047 3046 3046 3046 3045 3045 3044 3043 3043 3042 3041 3041 3040 3039 3038 3037 3036 3036 3035 3035 3034 3034 3033 3033 3032 3031 3030 3029 3028 3027 3025 3024 3022
3025 3026 3027 3029 3030 3032 3033 3033 3032 3032 3035 3037 3038 3038 3039 3041 3042 3042 3043 3043 3044 3045 3046 3047 3048 3049 3049 3050 3050 3051 3051 3052 3051 3051 3051 3052 3052 3051 3051 3051 3052 3051 3050 3050 3050 3050 3049 3049 3049 3048 3047 3046 3045 3044 3044 3044 3043 3042 3041 3040 3040 3039 3039 3038 3037 3036 3035 3035 3034 3034 3033 3033 3032 3032 3032 3031 3031 3030 3029 3028 3027 3026 3024 3023 3021
3023 3024 3025 3027 3027 3028 3030 3030 3030 3030 3032 3034 3035 3035 3036 3038 3040 3040 3040 3041 3042 3043 3044 3045 3045 3046 3046 3047 3047 3048 3049 3049 3049 3049 3048 3048 3048 3048 3047 3047 3048 3047 3047 3047 3047 3046 3046 3046 3045 3044 3044 3043 3042 3041 3041 3041 3040 3040 3039 3037 3037 3036 3036 3035 3035 3034 3033 3033 3032 3032 3031 3031 3031 3030 3030 3030 3029 3028 3027 3026 3025 3024 3023 3022 3020
3021 3023 3024 3025 3026 3026 3028 3029 3029 3029 3030 3031 3033 3034 3035 3036 3037 3038 3038 3039 3039 3041 3042 3042 3042 3042 3043 3043 3044 3045 3046 3046 3046 3046 3046 3046 3046 3045 3044 3044 3044 3044 3044 3044 3044 3043 3043 3043 3042 3042 3041 3040 3039 3039 3038 3038 3037 3037 3036 3035 3034 3034 3034 3033 3032 3032 3031 3031 3030 3030 3030 3029 3029 3029 3028 3028 3028 3027 3026 3025 3024 3023 3022 3021 3019
3019 3021 3023 3024 3024 3025 3025 3026 3026 3027 3028 3029 3030 3032 3033 3033 3034 3035 3036 3037 3037 3038 3039 3039 3039 3039 3040 3040 3041 3042 3043 3043 3043 3043 3043 3043 3043 3042 3041 3041 3041 3041 3041 3041 3041 3041 3040 3040 3039 3039 3038 3037 3037 3036 3036 3035 3035 3034 3033 3032 3032 3032 3031 3031 3030 3030 3029 3029 3029 3028 3028 3028 3027 3027 3027 3027 3026 3025 3025 3024 3023 3021 3020 3019 3018
3015 3018 3020 3021 3022 3023 3023 3023 3023 3024 3026 3027 3028 3030 3030 3031 3031 3032 3033 3034 3035 3035 3036 3036 3036 3036 3037 3037 3038 3038 3038 3039 3038 3039 3039 3039 3039 3038 3038 3037 3037 3037 3038 3038 3038 3037 3037 3037 3036 3036 3035 3035 3035 3034 3034 3033 3032 3031 3030 3030 3029 3029 3029 3029 3028 3028 3027 3027 3027 3027 3026 3026 3026 3026 3025 3025 3024 3024 3023 3022 3021 3020 3019 3018 3017
3014 3016 3018 3019 3019 3020 3021 3021 3022 3023 3025 3026 3026 3027 3027 3028 3028 3029 3031 3032 3032 3032 3033 3033 3033 3033 3034 3034 3035 3035 3035 3035 3035 3035 3035 3036 3036 3035 3035 3034 3034 3034 3034 3034 3034 3034 3034 3033 3033 3033 3033 3033 3033 3032 3031 3030 3030 3029 3028 3028 3027 3027 3026 3026 3026 3025 3025 3025 3025 3025 3025 3024 3024 3024 3024 3023 3023 3022 3022 3021 3020 3019 3018 3017 3016